Amargosa Valley, NV

10:37 PM PST on February 27, 2017 (GMT -0800)
Mercury

Weather History for KDRA - February, 2013

Change the Weather History Date:

Monday, February 25, 2013

  Actual Average Record
Temperature  
Mean Temperature 42 °F 49 °F  
Max Temperature 55 °F 61 °F 81 °F (1986)
Min Temperature 28 °F 37 °F 27 °F (2017)
Degree Days  
Heating Degree Days 24    
Cooling Degree Days 0    
Moisture  
Dew Point 2 °F    
Average Humidity 18    
Maximum Humidity 35    
Minimum Humidity 4    
Precipitation  
Precipitation 0.00 in 0.03 in 0.54 in (1987)
Month to date precipitation 0.79  
Year to date precipitation 1.53  
Sea Level Pressure  
Sea Level Pressure 30.11 in    
Wind  
Wind Speed 9 mph (NW)    
Max Wind Speed 14 mph    
Max Gust Speed 23 mph    
Visibility 10 miles    
Events      
T = Trace of Precipitation, MM = Missing Value Source: NWS Daily Summary

Daily Weather History Graph

Daily Weather History Graph

Search for Another Location

Airport or City:

Trip Planner

Search our weather history database for the weather conditions in past years. The results will help you decide how hot, cold, wet, or windy it might be!

Date:

Astronomy

Feb. 25, 2013 Rise Set
Actual Time 6:19 AM PST 5:35 PM PST
Civil Twilight 5:53 AM PST 6:01 PM PST
Nautical Twilight 5:23 AM PST 6:31 PM PST
Astronomical Twilight 4:53 AM PST 7:01 PM PST
Moon 5:51 PM PST (2/25) 5:53 AM PST (2/25)
Length of Visible Light 12h 07m
Length of Day
11h 15m
Full, 100% of the Moon is Illuminated
Feb 25
Full
Feb 25
Full
Mar 4
Last Quarter
Mar 11
New
Mar 19
First Quarter

Hourly Weather History & Observations

Time (PST) Temp. Windchill Dew Point Humidity Pressure Visibility Wind Dir Wind Speed Gust Speed Precip Events Conditions
12:00 AM - - - N/A% - - North - - N/A   Unknown
12:52 AM 36.0 °F 27.5 °F 1.9 °F 24% 30.21 in 10.0 mi NE 12.7 mph - N/A   Clear
1:52 AM 35.1 °F 25.9 °F 1.9 °F 25% 30.20 in 10.0 mi NE 13.8 mph - N/A   Clear
2:52 AM 34.0 °F 26.0 °F 3.0 °F 27% 30.19 in 10.0 mi ENE 10.4 mph - N/A   Clear
3:52 AM 34.0 °F 25.5 °F 3.0 °F 27% 30.20 in 10.0 mi NE 11.5 mph - N/A   Clear
4:52 AM 33.1 °F 24.4 °F 3.0 °F 28% 30.20 in 10.0 mi East 11.5 mph - N/A   Clear
5:52 AM 33.1 °F 24.9 °F 3.9 °F 29% 30.21 in 10.0 mi NNE 10.4 mph - N/A   Clear
6:52 AM 28.9 °F 23.9 °F 3.9 °F 35% 30.24 in 10.0 mi NNW 4.6 mph - N/A   Clear
7:52 AM 36.0 °F 32.1 °F 5.0 °F 27% 30.23 in 10.0 mi Variable 4.6 mph - N/A   Clear
8:52 AM 42.1 °F - 5.0 °F 22% 30.22 in 10.0 mi Calm Calm - N/A   Clear
9:52 AM 44.1 °F - 5.0 °F 20% 30.19 in 10.0 mi Calm Calm - N/A   Clear
10:52 AM 46.9 °F - 1.9 °F 16% 30.17 in 10.0 mi Variable 3.5 mph - N/A   Clear
11:52 AM 51.1 °F - 1.9 °F 13% 30.12 in 10.0 mi WSW 5.8 mph - N/A   Clear
12:52 PM 53.1 °F - -2.9 °F 10% 30.07 in 10.0 mi WSW 12.7 mph 23.0 mph N/A   Clear
1:52 PM 54.0 °F - -0.9 °F 11% 30.04 in 10.0 mi WSW 10.4 mph 16.1 mph N/A   Clear
2:52 PM 55.0 °F - -0.0 °F 11% 30.02 in 10.0 mi WSW 11.5 mph 17.3 mph N/A   Clear
3:52 PM 55.0 °F - -0.9 °F 10% 29.99 in 10.0 mi WSW 8.1 mph - N/A   Clear
4:52 PM 54.0 °F - -0.0 °F 11% 29.99 in 10.0 mi SW 12.7 mph - N/A   Clear
5:52 PM 50.0 °F - -2.0 °F 12% 29.99 in 10.0 mi SW 9.2 mph - N/A   Clear
6:52 PM 48.0 °F - -2.0 °F 13% 30.00 in 10.0 mi West 9.2 mph - N/A   Clear
7:52 PM 45.0 °F 39.7 °F -0.0 °F 15% 30.00 in 10.0 mi WNW 10.4 mph - N/A   Clear
8:52 PM 44.1 °F 38.6 °F 1.0 °F 17% 30.01 in 10.0 mi NNW 10.4 mph - N/A   Clear
9:52 PM 37.9 °F - 1.9 °F 22% 30.02 in 10.0 mi Calm Calm - N/A   Clear
10:52 PM 37.0 °F 34.5 °F 3.0 °F 24% 30.03 in 10.0 mi East 3.5 mph - N/A   Clear
11:52 PM 33.1 °F - 3.9 °F 29% 30.04 in 10.0 mi Calm Calm - N/A   Clear